Bookmark and Share
Track history (hours):
 

S C

Last reported at 2014-Apr-19 16:33 UTC. Time now 2014-Apr-19 17:06 UTC.
Position N 49°29' E 000°07'.

; draft 1 m.

Type: Pilot. MMSI: 227001820.

NotesDate/timePositionNaut miles runAvg speedWind from/ knotsBaromVisibWave heightAir tempDewpointWater temp
2014-Apr-19 16:33N 49°29' E 000°07'0 0.0
2014-Apr-19 15:33N 49°29' E 000°07'0 0.0
2014-Apr-19 14:33N 49°29' E 000°07'0 0.0
2014-Apr-19 13:33N 49°29' E 000°07'0 0.0
2014-Apr-19 12:34N 49°29' E 000°07'0 0.0
2014-Apr-19 11:33N 49°29' E 000°07'2 1.5
2014-Apr-19 10:33N 49°29' E 000°04'2 1.5
2014-Apr-19 09:33N 49°29' E 000°07'0 0.0
2014-Apr-19 08:33N 49°29' E 000°07'0 0.0
2014-Apr-19 07:33N 49°29' E 000°07'0 0.0
2014-Apr-19 06:33N 49°29' E 000°07'0 0.0
2014-Apr-19 05:33N 49°29' E 000°07'0 0.0
2014-Apr-19 04:33N 49°29' E 000°07'0 0.0
2014-Apr-19 03:33N 49°29' E 000°07'0 0.0
2014-Apr-19 02:33N 49°29' E 000°07'0 0.0
2014-Apr-19 01:33N 49°29' E 000°07'0 0.0
2014-Apr-19 00:33N 49°29' E 000°07'0 0.0
2014-Apr-18 23:33N 49°29' E 000°07'0 0.0
2014-Apr-18 22:33N 49°29' E 000°07'0 0.0
2014-Apr-18 21:33N 49°29' E 000°07'0 0.0
2014-Apr-18 20:33N 49°29' E 000°07'0 0.0
2014-Apr-18 19:33N 49°29' E 000°07'4 3.6
2014-Apr-18 18:33N 49°29' E 000°01'4 3.6
2014-Apr-18 17:33N 49°29' E 000°07'0 0.0
2014-Apr-18 16:33N 49°29' E 000°07'4 4.4
2014-Apr-18 15:33N 49°31' E 000°01'4 4.5
2014-Apr-18 14:33N 49°29' E 000°07'0 0.0
2014-Apr-18 13:33N 49°29' E 000°07'0 0.4
2014-Apr-18 12:33N 49°29' E 000°06'0 0.4
2014-Apr-18 11:33N 49°29' E 000°07'0 0.1
2014-Apr-18 10:34N 49°29' E 000°07'0 0.1
2014-Apr-18 09:34N 49°29' E 000°07'0 0.0
2014-Apr-18 08:33N 49°29' E 000°07'0 0.1
2014-Apr-18 07:33N 49°29' E 000°07'0 0.1
2014-Apr-18 06:33N 49°29' E 000°07'0 0.0
2014-Apr-18 05:34N 49°29' E 000°07'1 0.5
2014-Apr-18 04:33N 49°29' E 000°06'1 0.5
2014-Apr-18 03:33N 49°29' E 000°07'0 0.0
2014-Apr-18 02:34N 49°29' E 000°07'9 8.8
2014-Apr-18 01:33N 49°31' W 000°06'9 8.8
2014-Apr-18 00:33N 49°29' E 000°07'0 0.0
2014-Apr-17 23:33N 49°29' E 000°07'0 0.0
2014-Apr-17 22:33N 49°29' E 000°07'0 0.0
2014-Apr-17 21:33N 49°29' E 000°07'0 0.0
2014-Apr-17 20:33N 49°29' E 000°07'0 0.0
2014-Apr-17 19:33N 49°29' E 000°07'0 0.0
2014-Apr-17 18:33N 49°29' E 000°07'0 0.0
2014-Apr-17 17:33N 49°29' E 000°07'0 0.0
2014-Apr-17 16:33N 49°29' E 000°07'0 0.0
2014-Apr-17 15:33N 49°29' E 000°07'0 0.0
2014-Apr-17 14:33N 49°29' E 000°07'0 0.0
2014-Apr-16 14:34N 49°29' E 000°07'0 0.0
2014-Apr-16 07:31N 49°29' E 000°07'0 0.0
2014-Apr-15 21:27N 49°29' E 000°07'0 0.0
2014-Apr-15 20:33N 49°29' E 000°07'0 0.0
2014-Apr-15 19:33N 49°29' E 000°07'0 0.0
2014-Apr-15 18:33N 49°29' E 000°07'0 0.0
2014-Apr-15 17:33N 49°29' E 000°07'0 0.0
2014-Apr-15 16:33N 49°29' E 000°07'0 0.0
2014-Apr-15 15:33N 49°29' E 000°07'0 0.0
2014-Apr-15 14:33N 49°29' E 000°07'0 0.0
2014-Apr-15 12:34N 49°29' E 000°07'0 0.0
2014-Apr-15 11:34N 49°29' E 000°07'0 0.0
2014-Apr-15 10:34N 49°29' E 000°07'0 0.0
2014-Apr-15 09:34N 49°29' E 000°07'0 0.0
2014-Apr-15 08:34N 49°29' E 000°07'0 0.0
2014-Apr-15 07:34N 49°29' E 000°07'0 0.0
2014-Apr-15 06:34N 49°29' E 000°07'0 0.0
2014-Apr-15 05:34N 49°29' E 000°07'0 0.0
2014-Apr-14 07:33N 49°29' E 000°07'0 0.0
2014-Apr-14 06:33N 49°29' E 000°07'0 0.0
2014-Apr-14 05:33N 49°29' E 000°07'0 0.0
2014-Apr-12 07:15N 49°29' E 000°07'0 0.0
2014-Apr-12 06:33N 49°29' E 000°07'0 0.0
2014-Apr-12 05:33N 49°29' E 000°07'0 0.0
2014-Apr-12 04:33N 49°29' E 000°07'6 5.8
2014-Apr-12 03:34N 49°30' W 000°02'6 5.8
2014-Apr-12 02:33N 49°29' E 000°07'1 0.6
2014-Apr-12 01:33N 49°29' E 000°06'4 4.0
2014-Apr-12 00:33N 49°30' W 000°00'5 4.6
2014-Apr-11 23:33N 49°29' E 000°07'0 0.4
2014-Apr-11 22:33N 49°29' E 000°06'6 5.6
2014-Apr-11 21:34N 49°31' W 000°02'6 6.0
2014-Apr-11 20:34N 49°29' E 000°07'7 7.5
2014-Apr-11 19:33N 49°31' W 000°04'7 7.5
2014-Apr-11 18:33N 49°29' E 000°07'0 0.0
2014-Apr-11 17:33N 49°29' E 000°07'3 3.3
2014-Apr-11 16:33N 49°30' E 000°02'4 4.0
2014-Apr-11 15:33N 49°33' W 000°02'7 6.9
2014-Apr-11 14:33N 49°29' E 000°07'0 0.0
2014-Apr-11 13:33N 49°29' E 000°07'0 0.0
2014-Apr-11 12:33N 49°29' E 000°07'0 0.0
2014-Apr-11 11:33N 49°29' E 000°07'5 5.1
2014-Apr-11 10:33N 49°30' W 000°01'5 4.9
2014-Apr-11 09:34N 49°29' E 000°06'0 0.2
2014-Apr-11 08:34N 49°29' E 000°07'0 0.0
2014-Apr-11 07:34N 49°29' E 000°07'0 0.0
2014-Apr-11 06:34N 49°29' E 000°07'0 0.0
2014-Apr-11 05:34N 49°29' E 000°07'8 7.5
2014-Apr-11 04:33N 49°31' W 000°05'7 7.1
2014-Apr-11 03:34N 49°29' E 000°06'1 0.6
2014-Apr-11 02:33N 49°29' E 000°07'9 9.0
2014-Apr-11 01:34N 49°31' W 000°07'9 9.0
2014-Apr-11 00:33N 49°29' E 000°07'0 0.0
2014-Apr-10 23:33N 49°29' E 000°07'0 0.0
2014-Apr-10 22:33N 49°29' E 000°07'0 0.0
2014-Apr-10 21:33N 49°29' E 000°07'0 0.0
2014-Apr-10 20:33N 49°29' E 000°07'0 0.0
2014-Apr-10 19:33N 49°29' E 000°07'0 0.0
2014-Apr-10 18:33N 49°29' E 000°07'3 3.4
2014-Apr-10 17:33N 49°29' E 000°02'3 3.4
2014-Apr-10 16:33N 49°29' E 000°07'0 0.0
2014-Apr-10 15:33N 49°29' E 000°07'0 0.0
2014-Apr-10 14:33N 49°29' E 000°07'0 0.0
2014-Apr-10 13:33N 49°29' E 000°07'0 0.0
2014-Apr-10 12:33N 49°29' E 000°07'0 0.0
2014-Apr-10 11:33N 49°29' E 000°07'0 0.0
2014-Apr-10 10:34N 49°29' E 000°07'2 1.7
2014-Apr-10 09:34N 49°29' E 000°04'2 1.7
2014-Apr-10 08:33N 49°29' E 000°07'0 0.0
2014-Apr-10 07:33N 49°29' E 000°07'0 0.0
2014-Apr-10 06:33N 49°29' E 000°07'  

Dump ship's entire track history

sailing weather and tide predictions

S C — FGF7634 — position and weather